sat.trackr.live / text

‹ back to catalog

ONEWEB-0011

NORAD 44062 · 2019-010F

PAYLOAD ACTIVE UNKNOWN

§ Identity

Operator
Country
UK
Launch date
2019-02-27
Launch site
FRGUI
Launch vehicle
Mass (kg)
RCS (m²)

Purposes: comms

External: N2YO · Heavens-Above · Gunter

§ Orbital elements

Epoch: 2026-09-13T00:07:47.232192Z

Period
109.46 min
Inclination
87.8980°
Eccentricity
0.0001804
Mean motion
13.15549101 rev/d
Perigee alt
1,200.4 km
Apogee alt
1,203.1 km
Semi-major
7,579.9 km
B*
-1.7468e-4
RAAN
241.6923°
Arg perigee
83.2167°
Mean anomaly
276.9168°
Rev number
36,296

§ Raw data

ONEWEB-00111 44062U 19010F   26256.00540778 -.00000053  00000+0 -17468-3 0  99972 44062  87.8980 241.6923 0001804  83.2167 276.9168 13.15549101362960

JSON: /api/v1/satellites/44062 · /tle

For live sub-satellite position, see the globe view (requires WebGL).

§ Visibility from observer

Set your observer location to see the next 7 days of passes ≥ 10°. The values pass through the URL so the page stays shareable.

No JS? Fill the form by hand. The geolocation button needs JavaScript.